Tracking 19489 objects as of 22-Jan-2019
HD Live streaming from Space Station
objects crossing your sky now

DMSP 5D-2 F13 (USA 109)

Track DMSP 5D-2 F13 (USA 109) now!
10-day predictions
DMSP 5D-2 F13 (USA 109) is classified as:


NORAD ID: 23533
Int'l Code: 1995-015A
Perigee: 842.2 km
Apogee: 850.9 km
Inclination: 98.8 °
Period: 101.7 minutes
Semi major axis: 7217 km
RCS: Unknown
Launch date: March 24, 1995
Source: United States (US)
Launch site: AIR FORCE WESTERN TEST RANGE (AFWTR)

Near-polar orbits; investigate Earth's environment.
aabbcc
Your satellite tracking list
Your tracking list is empty




NASA's NSSDC Master Catalog

Two Line Element Set (TLE):
1 23533U 95015A   19021.60507566 -.00000035 +00000-0 +44258-5 0  9991
2 23533 098.8001 024.6332 0006027 315.8917 152.1211 14.15860769230581
Source of the keplerian elements: McCants